Temp
77 77 77 78 76 76 75 75 75 75 74 76 76 74 73 73 74 74 74 74 73 73 73 73 74 74 76 75 75 76 76 75 76 78 77 77 78 77 76 75 76 75
76 76 77 77 75 76 75 75 75 75 74 74 74 75 74 74 74 74 74 73 74 74 74 74 73 73 74 74 75 74 74 75 75 78 76 75 77 78 77 77 77 76
76 77 78 78 78 77 77 75 75 75 74 74 75 74 74 75 74 74 73 73 74 75 73 73 73 73 74 74 74 75 74 73 73 76 75 75 76 76 76 77 76 76
75 76 78 77 75 75 76 75 74 74 74 74 74 75 74 74 74 74 73 74 74 73 74 73 73 73 74 74 74 76 75 74 74 74 73 75 75 76 75 75 74 76
77 75 76 75 74 74 74 73 74 74 73 72 74 74 73 72 73 74 75 75 73 74 73 74 75 75 74 74 74 74 75 76 74 73 72 72 74 74 75 74 72 73
74 74 74 74 75 75 76 75 74 73 72 73 73 73 73 73 73 74 74 74 74 75 75 75 76 76 75 73 73 72 74 74 73 71 71 70 71 73 74 72 71 72
73 73 73 74 75 76 75 74 73 73 73 74 73 71 73 73 73 72 72 74 74 74 74 73 72 73 74 73 72 71 72 72 71 70 69 71 70 70 72 71 70 71
73 73 73 73 73 73 75 76 75 73 74 73 74 72 72 73 74 73 73 73 74 74 73 74 72 71 73 73 72 70 72 75 73 70 69 69 69 68 69 70 70 70
73 73 74 73 72 72 72 74 75 74 74 73 72 73 74 73 74 73 71 72 72 72 72 73 72 73 72 72 70 70 70 72 73 71 70 70 69 69 70 70 69 70
75 73 72 72 71 72 71 72 73 74 75 73 72 72 72 72 72 71 71 71 72 72 72 71 71 73 74 73 72 71 71 70 71 71 72 71 70 70 70 69 68 67
73 72 71 71 71 72 72 73 73 75 75 75 73 73 72 72 72 72 72 73 74 74 73 72 71 71 71 73 74 74 71 72 71 71 72 71 72 71 69 69 69 67
72 72 72 71 72 72 72 73 74 74 74 75 73 72 72 73 72 72 73 72 74 75 73 72 72 71 70 71 72 74 73 72 72 71 72 72 72 72 71 71 70 69
74 74 73 73 73 73 73 73 74 75 74 73 73 73 73 73 74 72 73 74 73 75 73 72 72 72 70 71 71 72 72 73 73 71 71 72 72 72 72 71 71 71
74 75 74 72 72 72 72 74 74 74 73 73 74 73 74 75 75 76 76 75 74 74 73 72 71 71 71 71 71 71 71 71 72 72 72 72 72 72 72 72 70 71
73 75 74 73 72 72 72 72 73 74 73 73 73 73 74 74 74 76 75 76 75 74 73 73 72 70 69 69 70 70 69 69 69 70 70 70 71 72 71 72 71 73
73 73 73 74 72 71 71 72 73 73 74 73 73 73 73 73 73 74 75 75 75 75 75 74 72 72 66 64 65 67 68 69 70 71 70 70 70 70 70 71 71 73
72 72 72 71 72 72 72 71 72 73 73 73 73 72 72 72 72 71 72 74 74 75 75 74 73 71 63 63 64 65 67 69 70 71 70 70 71 69 68 70 72 72
72 71 71 71 71 71 71 72 72 72 73 73 73 73 73 73 71 71 71 72 72 72 74 74 72 65 63 63 63 63 65 68 71 71 72 71 70 70 71 70 71 71
71 71 71 72 71 72 72 72 72 72 72 72 72 73 72 71 71 72 71 72 72 71 71 73 74 65 63 63 63 63 64 67 72 71 70 70 70 70 71 70 68 69
71 71 71 71 72 72 72 72 72 72 73 74 73 72 72 72 73 72 72 72 72 72 72 73 74 67 63 63 63 62 63 65 72 71 71 70 69 69 70 68 67 67
71 71 71 71 71 72 72 72 71 72 72 72 73 73 72 71 71 72 72 72 72 73 73 73 73 65 64 63 62 62 63 66 72 72 71 70 70 70 69 69 69 70
71 71 71 71 71 71 71 70 71 71 71 72 72 73 74 73 72 73 72 72 72 73 72 72 73 64 65 63 62 62 63 71 71 71 69 70 70 70 69 69 70 69
72 71 71 71 71 71 71 71 71 71 72 73 72 73 72 73 72 73 73 73 72 72 72 72 73 66 62 63 62 61 65 71 70 71 70 70 70 69 69 69 69 67
72 72 72 72 71 71 71 72 72 72 72 73 72 72 72 73 73 73 73 73 73 72 72 72 73 70 63 63 62 61 65 70 69 69 70 70 70 70 69 68 67 65
73 72 72 72 71 72 72 72 72 72 73 73 72 73 72 73 74 73 73 73 74 73 72 71 72 71 62 62 61 61 66 70 70 69 69 68 69 69 70 70 69 68
73 72 72 72 72 72 73 73 73 72 72 72 73 74 75 74 73 74 72 72 73 73 74 73 72 73 70 60 61 61 62 69 71 70 68 67 68 68 69 69 70 70
MSLP
1020.39 1020.35 1020.47 1020.47 1020.75 1020.79 1020.79 1020.75 1020.75 1020.83 1020.87 1020.59 1020.55 1020.71 1020.75 1020.63 1020.43 1020.31 1020.15 1020.07 1019.99 1019.91 1019.79 1019.55 1019.19 1018.99 1018.59 1018.51 1018.35 1018.11 1018.03 1017.99 1017.75 1017.55 1017.55 1017.43 1017.15 1017.07 1017.03 1016.99 1016.83 1016.75
1020.75 1020.79 1020.75 1020.75 1020.95 1020.91 1020.91 1020.95 1021.03 1020.95 1020.99 1020.95 1020.91 1020.75 1020.67 1020.55 1020.55 1020.47 1020.43 1020.31 1020.07 1019.99 1019.75 1019.51 1019.39 1019.19 1018.95 1018.79 1018.59 1018.55 1018.47 1018.27 1018.11 1017.79 1017.83 1017.79 1017.47 1017.27 1017.23 1017.03 1016.91 1016.83
1020.87 1020.75 1020.75 1020.79 1020.83 1020.95 1021.03 1021.23 1021.23 1021.15 1021.27 1021.19 1021.03 1020.95 1020.91 1020.63 1020.71 1020.63 1020.59 1020.47 1020.15 1019.91 1019.91 1019.75 1019.55 1019.39 1019.19 1019.03 1018.83 1018.67 1018.71 1018.67 1018.55 1018.23 1018.19 1018.07 1017.87 1017.67 1017.55 1017.35 1017.23 1017.07
1021.19 1021.15 1021.19 1021.27 1021.27 1021.27 1021.27 1021.39 1021.47 1021.43 1021.31 1021.31 1021.39 1021.23 1021.19 1021.03 1020.87 1020.79 1020.51 1020.39 1020.15 1020.19 1020.03 1019.91 1019.83 1019.63 1019.43 1019.23 1018.99 1018.75 1018.75 1018.63 1018.83 1018.71 1018.51 1018.27 1017.99 1017.95 1017.91 1017.79 1017.79 1017.39
1021.39 1021.55 1021.55 1021.59 1021.55 1021.67 1021.71 1021.75 1021.67 1021.75 1021.75 1021.71 1021.47 1021.39 1021.35 1021.35 1021.19 1020.87 1020.55 1020.35 1020.35 1020.23 1020.19 1020.03 1019.83 1019.75 1019.59 1019.55 1019.39 1019.19 1019.03 1018.67 1018.91 1019.03 1018.83 1018.71 1018.35 1018.35 1018.15 1018.19 1018.19 1017.87
1021.91 1021.87 1021.83 1021.79 1021.71 1021.67 1021.79 1021.87 1021.91 1022.03 1021.95 1021.83 1021.87 1021.67 1021.55 1021.51 1021.39 1021.03 1020.91 1020.71 1020.47 1020.39 1020.35 1020.31 1020.11 1019.95 1019.87 1019.83 1019.67 1019.67 1019.43 1019.31 1019.39 1019.47 1019.35 1019.23 1019.07 1018.79 1018.59 1018.51 1018.47 1018.23
1022.15 1022.11 1022.15 1022.07 1021.95 1021.91 1021.99 1022.07 1022.15 1022.07 1022.07 1021.91 1021.91 1021.95 1021.75 1021.67 1021.47 1021.35 1021.15 1020.91 1020.83 1020.79 1020.71 1020.67 1020.71 1020.47 1020.23 1020.15 1020.07 1020.03 1019.75 1019.63 1019.71 1019.75 1019.67 1019.43 1019.39 1019.23 1019.03 1018.87 1018.71 1018.43
1022.31 1022.31 1022.35 1022.35 1022.35 1022.27 1022.07 1022.15 1022.27 1022.31 1022.15 1021.99 1021.91 1021.95 1021.91 1021.83 1021.51 1021.47 1021.43 1021.15 1021.11 1021.15 1021.03 1020.99 1020.91 1020.87 1020.63 1020.55 1020.47 1020.43 1020.11 1019.75 1019.83 1019.83 1019.83 1019.67 1019.59 1019.51 1019.35 1019.11 1018.87 1018.75
1022.35 1022.43 1022.47 1022.55 1022.63 1022.55 1022.47 1022.23 1022.31 1022.39 1022.27 1022.27 1022.19 1021.95 1021.95 1021.95 1021.79 1021.79 1021.79 1021.59 1021.51 1021.47 1021.35 1021.23 1021.11 1020.83 1020.79 1020.79 1020.79 1020.67 1020.47 1020.27 1020.11 1020.03 1019.99 1019.83 1019.79 1019.67 1019.47 1019.31 1019.19 1018.83
1022.43 1022.63 1022.67 1022.71 1022.75 1022.75 1022.75 1022.59 1022.47 1022.35 1022.19 1022.19 1022.27 1022.23 1022.23 1022.27 1022.23 1022.07 1021.95 1021.79 1021.51 1021.51 1021.55 1021.47 1021.35 1021.03 1020.67 1020.63 1020.75 1020.83 1020.71 1020.55 1020.43 1020.27 1020.15 1019.99 1019.95 1019.91 1019.71 1019.51 1019.51 1019.39
1022.71 1022.75 1022.83 1022.83 1022.83 1022.79 1022.75 1022.63 1022.51 1022.31 1022.23 1022.19 1022.31 1022.39 1022.39 1022.35 1022.35 1022.19 1022.03 1021.71 1021.43 1021.43 1021.43 1021.55 1021.51 1021.47 1021.35 1020.95 1020.67 1020.63 1020.79 1020.71 1020.63 1020.47 1020.31 1020.19 1020.07 1020.03 1019.99 1019.75 1019.51 1019.67
1022.83 1022.87 1022.87 1022.91 1022.87 1022.83 1022.79 1022.71 1022.59 1022.43 1022.31 1022.23 1022.43 1022.55 1022.39 1022.35 1022.39 1022.19 1022.03 1022.11 1021.75 1021.51 1021.63 1021.71 1021.59 1021.55 1021.59 1021.35 1021.07 1020.75 1020.71 1020.83 1020.75 1020.67 1020.51 1020.31 1020.19 1020.11 1020.03 1019.99 1019.75 1019.51
1022.67 1022.67 1022.71 1022.75 1022.79 1022.83 1022.79 1022.75 1022.67 1022.51 1022.47 1022.67 1022.59 1022.59 1022.51 1022.39 1022.31 1022.35 1022.19 1022.11 1022.11 1021.79 1021.79 1021.91 1021.79 1021.67 1021.55 1021.39 1021.27 1021.11 1020.87 1020.71 1020.59 1020.71 1020.67 1020.51 1020.31 1020.31 1020.11 1020.11 1019.95 1019.75
1022.51 1022.63 1022.83 1022.95 1022.95 1022.91 1022.87 1022.79 1022.79 1022.71 1022.75 1022.71 1022.51 1022.67 1022.59 1022.39 1022.23 1022.07 1022.03 1022.15 1022.15 1022.15 1022.15 1022.03 1022.03 1021.91 1021.75 1021.47 1021.35 1021.35 1021.23 1021.15 1020.95 1020.59 1020.59 1020.55 1020.43 1020.31 1020.19 1020.11 1019.99 1019.83
1022.63 1022.55 1022.75 1022.87 1022.99 1023.03 1022.99 1022.95 1022.91 1022.87 1022.87 1022.75 1022.67 1022.59 1022.63 1022.59 1022.43 1022.15 1022.07 1021.91 1021.91 1021.99 1021.99 1022.07 1022.11 1022.23 1022.35 1022.19 1021.75 1021.51 1021.47 1021.35 1021.11 1020.99 1020.91 1020.75 1020.47 1020.39 1020.43 1020.15 1019.99 1019.71
1022.59 1022.63 1022.75 1022.75 1022.99 1023.11 1023.07 1022.99 1022.95 1022.91 1022.79 1022.79 1022.71 1022.59 1022.67 1022.71 1022.55 1022.31 1021.99 1022.03 1021.87 1021.79 1021.79 1022.03 1022.27 1022.43 1022.79 1022.71 1022.47 1022.07 1021.67 1021.35 1021.03 1020.83 1020.83 1020.63 1020.47 1020.23 1020.51 1020.23 1020.07 1019.71
1022.75 1022.79 1022.83 1022.95 1022.99 1023.03 1023.03 1023.11 1023.07 1022.91 1022.83 1022.79 1022.67 1022.87 1022.83 1022.71 1022.79 1022.79 1022.59 1022.31 1022.11 1021.87 1021.79 1021.95 1022.31 1022.67 1022.99 1022.83 1022.63 1022.39 1021.91 1021.35 1021.07 1020.83 1020.83 1020.67 1020.51 1020.43 1020.59 1020.43 1019.99 1019.83
1022.67 1022.83 1022.91 1022.95 1022.99 1023.11 1023.11 1023.07 1022.99 1022.95 1022.87 1022.75 1022.63 1022.63 1022.67 1022.55 1022.79 1022.71 1022.59 1022.51 1022.43 1022.31 1021.99 1021.87 1022.31 1022.87 1022.95 1022.83 1022.67 1022.51 1022.19 1021.67 1021.15 1021.07 1020.83 1020.83 1020.83 1020.71 1020.51 1020.51 1020.19 1020.03
1022.75 1022.83 1022.91 1022.91 1022.95 1022.99 1022.99 1022.99 1022.99 1022.99 1022.91 1022.87 1022.87 1022.71 1022.67 1022.71 1022.63 1022.47 1022.51 1022.43 1022.39 1022.35 1022.23 1022.03 1022.07 1022.71 1022.75 1022.75 1022.67 1022.55 1022.31 1021.91 1021.19 1021.23 1021.03 1021.07 1021.07 1020.91 1020.71 1020.63 1020.63 1020.27
1022.79 1022.83 1022.87 1022.91 1022.87 1022.87 1022.91 1022.95 1022.95 1022.95 1022.79 1022.63 1022.71 1022.67 1022.63 1022.59 1022.43 1022.47 1022.35 1022.31 1022.27 1022.23 1022.11 1022.03 1021.83 1022.39 1022.59 1022.63 1022.59 1022.55 1022.31 1021.87 1021.19 1021.19 1021.07 1021.15 1021.19 1021.11 1020.87 1020.91 1020.79 1020.59
1022.83 1022.83 1022.87 1022.87 1023.03 1022.95 1022.87 1022.87 1022.99 1022.87 1022.83 1022.79 1022.67 1022.47 1022.55 1022.63 1022.55 1022.43 1022.35 1022.23 1022.19 1022.07 1021.91 1021.79 1021.79 1022.23 1022.39 1022.47 1022.47 1022.47 1022.23 1021.67 1021.11 1021.07 1021.19 1021.15 1021.15 1021.11 1021.11 1020.99 1020.75 1020.55
1022.67 1022.79 1022.75 1022.95 1022.99 1022.99 1023.03 1023.03 1023.03 1022.95 1022.91 1022.75 1022.75 1022.51 1022.35 1022.43 1022.39 1022.27 1022.31 1022.19 1022.07 1021.99 1021.91 1021.79 1021.63 1022.07 1022.19 1022.27 1022.35 1022.35 1022.15 1021.47 1021.23 1021.03 1021.31 1021.11 1021.19 1021.15 1021.03 1020.83 1020.75 1020.87
1022.55 1022.67 1022.71 1022.87 1022.87 1022.91 1022.95 1022.91 1022.91 1022.83 1022.75 1022.59 1022.71 1022.51 1022.47 1022.35 1022.27 1022.19 1022.11 1022.07 1022.03 1021.87 1021.83 1021.75 1021.51 1021.87 1022.03 1022.15 1022.23 1022.23 1021.99 1021.39 1021.35 1021.03 1021.07 1021.11 1021.11 1021.11 1020.95 1020.79 1020.95 1021.19
1022.51 1022.55 1022.67 1022.75 1022.83 1022.79 1022.83 1022.79 1022.71 1022.63 1022.63 1022.55 1022.63 1022.55 1022.47 1022.31 1022.15 1022.03 1021.87 1021.83 1021.87 1021.83 1021.71 1021.75 1021.51 1021.59 1021.87 1021.99 1022.07 1022.15 1021.95 1021.47 1021.35 1021.19 1021.07 1021.07 1020.95 1020.87 1020.87 1020.83 1021.15 1021.31
1022.35 1022.47 1022.51 1022.75 1022.79 1022.75 1022.67 1022.63 1022.71 1022.63 1022.51 1022.51 1022.47 1022.39 1022.31 1022.11 1021.91 1021.87 1021.83 1021.63 1021.55 1021.63 1021.63 1021.67 1021.47 1021.43 1021.63 1021.79 1021.91 1021.99 1021.83 1021.35 1021.31 1021.19 1021.15 1021.11 1020.95 1020.91 1020.75 1020.71 1020.71 1020.91
1022.39 1022.59 1022.59 1022.67 1022.71 1022.63 1022.59 1022.55 1022.47 1022.51 1022.51 1022.43 1022.35 1022.03 1021.79 1021.83 1021.95 1021.75 1021.83 1021.67 1021.47 1021.43 1021.27 1021.27 1021.35 1021.19 1021.27 1021.59 1021.71 1021.79 1021.83 1021.55 1021.15 1021.11 1021.19 1021.19 1021.07 1020.91 1020.71 1020.67 1020.67 1020.55
Wind_Speed
5 4 5 5 5 4 5 5 5 5 5 6 6 5 6 6 8 10 10 9 8 8 8 6 6 6 5 6 6 7 6 7 7 7 7 8 7 8 7 8 8 7
6 5 4 4 3 3 3 4 5 5 4 4 6 6 6 7 8 9 9 9 8 7 6 7 6 6 7 6 7 7 7 7 8 7 8 9 8 8 8 9 8 8
4 4 5 5 5 6 5 5 4 4 5 5 6 6 7 8 8 8 8 8 6 7 7 6 6 7 7 7 6 6 7 8 8 9 8 8 8 8 8 9 9 9
6 7 6 5 5 5 4 4 4 4 5 6 6 7 7 7 7 8 7 7 7 7 7 7 7 8 8 8 8 7 7 7 8 8 8 7 7 8 8 8 9 8
7 6 5 4 4 5 4 4 5 6 6 6 7 7 7 7 8 7 7 7 6 6 6 7 7 8 8 7 8 8 8 7 9 9 8 8 8 8 7 8 9 9
6 5 5 5 4 5 5 6 7 6 6 7 8 7 7 8 7 8 8 8 7 8 8 8 8 8 8 8 8 8 8 8 9 9 9 9 9 9 7 8 8 9
7 6 6 5 6 5 6 6 6 6 5 5 6 7 7 7 6 8 7 7 8 7 8 8 9 9 8 8 9 9 7 7 9 9 9 8 8 9 9 8 8 8
7 6 6 5 5 5 6 6 7 6 6 6 7 7 7 7 7 8 7 8 8 8 8 9 8 9 9 9 9 9 9 8 9 9 9 9 8 9 8 7 8 8
6 6 7 7 6 5 6 6 7 7 7 8 8 7 8 7 8 8 7 7 7 8 8 8 9 8 7 8 8 9 9 10 10 10 9 10 10 9 9 9 9 9
8 7 7 7 7 7 7 6 6 6 6 8 8 8 7 7 7 8 7 7 7 7 8 8 8 9 9 8 8 9 9 9 10 9 9 10 10 10 10 9 10 10
8 7 7 7 7 6 7 6 6 7 7 8 8 8 8 6 5 5 6 7 7 8 8 8 8 9 9 10 9 9 9 9 9 9 9 9 9 9 9 10 9 9
7 7 7 7 7 6 6 7 6 7 7 8 8 7 7 7 7 6 6 7 8 9 8 8 8 8 8 8 9 10 9 8 8 9 9 9 9 9 9 9 9 9
6 5 5 6 6 6 5 6 6 7 7 7 6 7 7 6 7 7 7 8 8 9 9 9 8 8 7 7 8 9 10 10 9 8 9 8 8 9 9 9 8 9
5 6 6 6 5 4 4 5 5 6 6 6 6 7 7 7 8 8 7 8 8 9 8 7 8 8 9 9 8 8 8 8 10 10 9 8 9 8 8 9 8 8
6 5 6 5 5 5 4 4 5 5 5 5 5 6 6 7 6 7 7 8 8 8 8 7 7 7 7 8 8 8 7 8 8 8 9 9 8 8 9 8 8 7
5 5 4 5 5 5 4 4 4 4 5 4 4 4 5 4 5 5 6 7 7 8 8 7 7 6 7 9 9 8 7 7 7 7 7 7 8 8 7 8 7 8
6 5 5 5 4 4 4 3 3 3 3 4 3 4 2 3 4 4 5 6 7 7 7 7 6 6 6 7 7 10 8 7 8 8 7 8 8 8 7 8 7 7
5 5 5 4 4 4 3 2 2 2 2 2 3 3 3 4 3 3 4 4 4 5 6 6 6 5 3 5 6 8 9 8 7 7 7 7 7 8 7 7 8 8
5 5 4 4 4 3 3 2 1 1 1 1 2 3 2 2 3 3 4 3 3 3 4 5 5 6 2 3 5 6 9 10 8 6 6 6 7 7 7 7 7 7
5 5 4 3 3 3 2 2 2 1 0 1 1 1 2 2 4 3 3 4 4 4 4 3 4 7 2 1 2 5 8 11 9 7 6 6 6 7 7 7 7 7
5 4 4 4 3 3 3 2 1 1 1 1 1 0 1 3 3 3 3 3 3 4 5 4 4 6 3 1 1 3 8 13 8 7 6 6 7 7 7 7 7 7
6 5 4 2 3 3 3 2 2 1 1 1 2 3 2 2 2 3 3 4 4 3 4 5 3 8 4 4 2 3 9 6 8 7 6 7 7 7 6 6 7 9
6 5 4 4 2 3 3 2 2 2 2 2 3 2 2 3 3 3 3 4 4 4 4 4 3 7 5 5 3 3 7 6 6 7 7 7 7 7 6 6 7 7
6 6 5 4 3 3 2 2 2 1 2 2 3 3 3 3 4 3 3 4 4 5 5 5 5 4 8 6 4 4 6 6 5 6 6 7 6 6 5 5 7 8
6 5 5 4 4 4 3 3 2 1 1 2 2 3 3 3 4 4 4 4 4 5 4 5 5 1 9 6 7 5 5 5 5 6 6 6 6 6 5 5 5 6
5 5 5 5 4 4 3 3 2 2 3 3 3 4 4 4 4 5 5 5 4 4 4 4 4 4 3 9 7 7 6 5 4 5 6 5 5 6 4 5 6 5
Wind_Direction
49 48 38 37 39 25 19 18 25 30 8 360 9 12 7 4 359 356 2 359 358 6 4 9 14 9 24 35 26 27 28 21 13 18 16 4 5 7 11 10 10 359
59 55 56 63 69 42 47 27 30 15 32 21 16 1 8 3 3 7 6 1 8 17 19 25 15 20 29 32 31 29 23 12 11 15 6 7 2 8 6 4 7 360
61 62 52 39 33 33 34 43 32 31 40 21 17 8 5 4 4 16 10 10 16 31 33 26 36 31 29 28 22 29 23 19 11 12 2 8 5 1 7 1 359 356
54 37 41 41 33 36 52 64 64 49 19 30 20 14 13 9 7 19 16 30 33 44 38 39 36 33 29 21 10 17 15 20 21 2 3 356 7 2 7 5 360 353
51 52 49 55 76 82 68 69 60 46 42 29 20 24 23 15 19 15 24 42 40 50 50 43 38 32 25 22 11 7 2 5 22 6 0 2 2 2 4 6 359 357
73 68 61 62 72 80 87 68 56 54 38 39 31 20 25 25 25 31 34 38 46 46 45 34 25 29 21 19 15 13 10 16 23 13 9 12 8 2 4 3 2 1
81 75 69 65 68 80 81 73 63 55 46 40 43 28 20 34 31 46 38 50 50 45 39 37 32 22 25 23 24 15 17 23 24 19 8 11 8 3 13 1 6 3
87 80 78 78 78 63 69 72 64 53 45 31 40 39 32 41 38 53 43 46 48 42 39 40 37 35 27 27 22 19 17 15 20 17 13 18 14 15 17 12 12 9
89 91 95 92 84 78 68 75 77 71 54 47 34 38 46 46 48 55 48 49 48 44 40 41 33 35 41 34 27 20 18 18 19 17 19 20 23 22 19 18 17 12
103 101 95 90 85 80 78 73 73 72 67 62 56 46 52 54 51 53 51 46 51 54 47 42 37 29 30 38 38 29 16 20 19 20 22 23 28 24 19 18 21 17
101 102 97 89 85 82 81 79 80 79 69 61 57 57 54 54 57 52 45 43 50 46 47 42 39 33 25 23 26 33 26 18 19 17 21 22 25 27 24 14 20 24
110 103 95 93 92 92 86 90 87 75 70 69 63 51 56 62 52 45 56 49 36 48 45 40 36 38 31 24 21 20 31 26 19 16 13 17 22 18 24 17 12 19
113 104 104 98 92 84 87 85 80 81 78 73 65 57 60 56 65 62 48 51 48 45 50 41 36 35 30 29 22 21 18 20 25 25 17 15 16 17 17 19 13 17
109 102 92 90 89 87 84 88 91 87 83 77 74 68 57 54 54 59 66 61 56 56 46 43 38 27 23 22 26 25 20 20 15 14 20 19 12 21 15 21 16 25
127 118 105 100 101 100 100 104 106 99 88 77 64 64 62 58 48 50 51 54 63 57 58 52 44 42 27 9 12 25 23 14 16 15 13 11 8 20 11 8 13 21
114 105 111 97 107 105 110 117 110 96 87 83 85 71 68 52 58 47 52 51 49 54 54 57 53 48 25 14 4 350 354 13 8 18 13 8 4 12 23 2 11 9
141 129 118 115 113 118 110 108 114 110 100 94 82 76 70 85 48 50 33 34 30 36 49 57 54 52 26 13 6 358 342 356 9 10 8 5 6 9 21 3 6 9
129 122 126 123 119 123 136 128 124 118 104 77 65 66 44 44 55 46 45 38 44 27 27 47 78 84 41 24 9 350 348 340 19 5 7 22 358 10 15 8 6 6
141 143 133 129 127 133 149 156 161 147 138 94 49 39 36 39 41 39 44 41 29 32 25 25 63 108 96 42 5 347 338 335 21 357 1 23 7 12 11 14 10 3
157 155 147 143 144 145 160 165 185 183 288 42 54 21 19 14 21 18 27 24 26 15 23 10 39 103 120 49 352 340 331 313 25 359 15 25 16 19 15 15 12 357
171 165 167 151 169 178 181 162 188 250 305 331 311 294 28 5 345 3 359 8 9 3 2 357 52 123 168 185 269 319 320 299 28 9 17 21 21 29 20 13 13 6
176 175 169 167 171 175 185 185 194 208 256 293 296 311 346 328 316 323 347 344 346 350 342 347 64 153 182 193 233 280 304 329 12 16 21 19 26 24 20 14 24 14
177 175 169 171 162 180 178 185 198 232 246 279 285 291 300 296 331 327 335 334 333 333 335 330 21 157 181 190 188 255 294 359 4 7 21 18 24 16 13 13 42 15
170 175 171 171 179 174 173 166 213 209 229 265 296 310 314 327 310 312 320 326 327 328 328 333 334 133 175 188 196 194 283 336 5 4 17 18 14 22 18 35 73 51
170 179 175 186 180 183 189 173 213 224 287 289 274 278 272 274 310 314 326 315 340 327 320 304 323 134 172 190 188 187 249 336 357 4 13 16 8 15 22 22 38 69
178 177 186 193 191 195 192 210 221 226 243 248 272 284 311 335 309 307 315 311 316 314 312 322 317 324 159 183 188 190 226 283 340 356 14 13 15 356 21 27 23 14